Precipitable_Water
0.82 0.82 0.82 0.82 0.80 0.82 0.84 0.88 0.94 0.95 0.94 0.92 0.90 0.90 0.94 0.99 1.11 1.15 1.17 1.17 1.15 1.15 1.15 1.15 1.15 1.15 1.15 1.13 1.09 1.07 1.05 1.03 0.99 0.97 0.94 0.92 0.90 0.88 0.86 0.82 0.78 0.70 0.62 0.60 0.58 0.56 0.54 0.54 0.52 0.50 0.50 0.50 0.50 0.48 0.48 0.48 0.48 0.48 0.48 0.48 0.50 0.50 0.50 0.50 0.50 0.50 0.52 0.52 0.54
0.84 0.84 0.84 0.82 0.84 0.86 0.90 0.94 0.95 0.95 0.95 0.94 0.92 0.94 0.99 1.05 1.13 1.17 1.19 1.17 1.17 1.15 1.15 1.17 1.17 1.17 1.15 1.13 1.11 1.07 1.03 0.99 0.97 0.95 0.94 0.90 0.90 0.88 0.86 0.82 0.78 0.70 0.62 0.60 0.58 0.56 0.56 0.54 0.52 0.52 0.50 0.50 0.50 0.50 0.50 0.50 0.50 0.50 0.48 0.48 0.50 0.50 0.50 0.50 0.52 0.52 0.54 0.54 0.60
0.84 0.84 0.84 0.84 0.88 0.90 0.94 0.95 0.95 0.95 0.95 0.95 0.95 0.99 1.05 1.11 1.17 1.21 1.21 1.19 1.19 1.19 1.17 1.17 1.17 1.17 1.15 1.15 1.13 1.09 1.03 0.99 0.97 0.95 0.92 0.90 0.88 0.86 0.84 0.80 0.76 0.68 0.62 0.60 0.60 0.58 0.58 0.56 0.54 0.54 0.52 0.52 0.52 0.52 0.52 0.52 0.52 0.52 0.50 0.50 0.52 0.52 0.52 0.52 0.54 0.56 0.58 0.60 0.64
0.86 0.84 0.84 0.86 0.90 0.92 0.95 0.95 0.95 0.94 0.95 0.97 0.99 1.03 1.09 1.17 1.23 1.25 1.23 1.23 1.21 1.21 1.19 1.19 1.19 1.17 1.17 1.15 1.13 1.07 1.03 0.99 0.97 0.94 0.92 0.90 0.86 0.84 0.82 0.78 0.74 0.70 0.66 0.62 0.62 0.60 0.60 0.58 0.58 0.56 0.56 0.56 0.54 0.54 0.54 0.54 0.56 0.54 0.54 0.58 0.58 0.56 0.56 0.58 0.60 0.62 0.64 0.64 0.70
0.86 0.84 0.84 0.90 0.92 0.95 0.97 0.97 0.95 0.95 0.97 0.99 1.03 1.07 1.13 1.21 1.27 1.27 1.27 1.25 1.23 1.23 1.21 1.21 1.21 1.19 1.19 1.17 1.13 1.07 1.01 0.99 0.95 0.94 0.90 0.88 0.84 0.82 0.80 0.76 0.72 0.68 0.66 0.64 0.64 0.62 0.60 0.60 0.60 0.58 0.58 0.58 0.58 0.58 0.58 0.58 0.58 0.58 0.58 0.60 0.62 0.62 0.62 0.62 0.66 0.68 0.70 0.72 0.76
0.88 0.88 0.90 0.95 0.97 0.99 0.99 0.97 0.95 0.97 0.99 1.03 1.05 1.11 1.17 1.23 1.27 1.29 1.27 1.25 1.25 1.25 1.25 1.23 1.23 1.21 1.17 1.15 1.11 1.05 0.99 0.97 0.94 0.92 0.90 0.86 0.84 0.82 0.78 0.74 0.72 0.68 0.68 0.66 0.64 0.62 0.62 0.60 0.60 0.60 0.60 0.60 0.60 0.60 0.60 0.62 0.60 0.60 0.60 0.62 0.64 0.66 0.68 0.68 0.72 0.74 0.76 0.76 0.78
0.90 0.90 0.92 0.97 0.99 0.99 0.99 0.99 0.99 1.01 1.05 1.07 1.09 1.13 1.19 1.23 1.27 1.29 1.29 1.29 1.29 1.29 1.27 1.23 1.21 1.17 1.15 1.13 1.09 1.05 1.01 0.95 0.94 0.90 0.88 0.86 0.84 0.80 0.76 0.74 0.72 0.70 0.68 0.66 0.64 0.64 0.62 0.62 0.60 0.60 0.60 0.60 0.60 0.60 0.62 0.62 0.62 0.62 0.62 0.64 0.68 0.70 0.72 0.72 0.74 0.76 0.78 0.78 0.80
0.90 0.90 0.92 0.95 0.97 0.99 0.99 0.99 1.01 1.05 1.09 1.11 1.13 1.17 1.21 1.25 1.27 1.31 1.31 1.31 1.29 1.27 1.25 1.23 1.19 1.17 1.13 1.09 1.07 1.03 0.99 0.94 0.90 0.90 0.88 0.86 0.84 0.80 0.74 0.72 0.70 0.68 0.68 0.66 0.64 0.64 0.62 0.62 0.62 0.60 0.60 0.60 0.60 0.60 0.60 0.62 0.62 0.62 0.64 0.66 0.70 0.74 0.76 0.78 0.78 0.80 0.80 0.82 0.84
0.84 0.86 0.88 0.94 0.94 0.95 0.97 0.99 1.03 1.09 1.13 1.15 1.17 1.21 1.25 1.27 1.31 1.31 1.31 1.29 1.25 1.25 1.23 1.23 1.19 1.15 1.11 1.09 1.05 1.01 0.97 0.90 0.88 0.86 0.86 0.84 0.80 0.78 0.74 0.72 0.70 0.68 0.68 0.68 0.66 0.64 0.64 0.62 0.62 0.62 0.60 0.60 0.60 0.60 0.62 0.62 0.62 0.64 0.66 0.68 0.72 0.76 0.78 0.80 0.82 0.82 0.84 0.86 0.84
0.80 0.82 0.86 0.90 0.92 0.95 0.99 1.03 1.09 1.13 1.17 1.19 1.21 1.25 1.29 1.31 1.31 1.29 1.27 1.27 1.25 1.23 1.23 1.21 1.17 1.13 1.09 1.07 1.03 0.99 0.94 0.88 0.86 0.84 0.82 0.80 0.78 0.76 0.74 0.70 0.68 0.68 0.66 0.66 0.66 0.64 0.64 0.62 0.62 0.62 0.60 0.60 0.60 0.60 0.62 0.64 0.66 0.68 0.70 0.72 0.74 0.78 0.80 0.82 0.84 0.84 0.86 0.86 0.86
0.78 0.82 0.88 0.90 0.92 0.97 1.03 1.11 1.13 1.17 1.23 1.25 1.29 1.33 1.33 1.33 1.31 1.29 1.29 1.27 1.25 1.23 1.21 1.19 1.15 1.11 1.07 1.03 0.99 0.95 0.92 0.88 0.84 0.82 0.80 0.78 0.76 0.74 0.72 0.70 0.68 0.66 0.66 0.66 0.66 0.66 0.64 0.62 0.60 0.60 0.60 0.60 0.62 0.62 0.64 0.66 0.70 0.74 0.74 0.78 0.80 0.80 0.82 0.84 0.86 0.86 0.86 0.88 0.88
0.76 0.82 0.88 0.92 0.95 1.01 1.07 1.13 1.17 1.21 1.25 1.29 1.31 1.33 1.33 1.33 1.33 1.31 1.27 1.25 1.23 1.21 1.19 1.19 1.13 1.07 1.03 0.99 0.95 0.92 0.88 0.84 0.82 0.78 0.78 0.76 0.74 0.72 0.70 0.70 0.68 0.66 0.66 0.64 0.66 0.64 0.64 0.62 0.60 0.60 0.60 0.62 0.62 0.64 0.66 0.72 0.76 0.78 0.78 0.80 0.82 0.82 0.84 0.84 0.86 0.88 0.88 0.90 0.90
0.76 0.84 0.90 0.94 0.99 1.03 1.11 1.17 1.21 1.25 1.29 1.31 1.33 1.33 1.33 1.33 1.33 1.29 1.27 1.23 1.21 1.19 1.17 1.15 1.09 1.03 0.97 0.94 0.90 0.86 0.84 0.82 0.80 0.78 0.74 0.74 0.72 0.70 0.68 0.68 0.66 0.64 0.64 0.64 0.64 0.64 0.64 0.62 0.60 0.60 0.62 0.62 0.66 0.68 0.72 0.78 0.80 0.82 0.82 0.82 0.82 0.84 0.84 0.84 0.86 0.90 0.92 0.92 0.90
0.80 0.88 0.94 0.97 1.01 1.07 1.13 1.21 1.23 1.27 1.31 1.33 1.33 1.33 1.33 1.33 1.33 1.29 1.25 1.21 1.17 1.15 1.13 1.11 1.07 0.99 0.94 0.88 0.86 0.84 0.82 0.80 0.78 0.76 0.72 0.72 0.70 0.68 0.66 0.66 0.64 0.64 0.64 0.64 0.64 0.64 0.64 0.62 0.62 0.64 0.66 0.68 0.70 0.74 0.78 0.84 0.84 0.84 0.84 0.84 0.84 0.84 0.86 0.86 0.88 0.90 0.92 0.90 0.90
0.86 0.92 0.97 1.01 1.05 1.09 1.15 1.23 1.25 1.29 1.31 1.33 1.33 1.33 1.33 1.33 1.31 1.27 1.21 1.17 1.15 1.11 1.09 1.05 1.01 0.95 0.90 0.86 0.84 0.82 0.80 0.80 0.78 0.74 0.72 0.70 0.68 0.66 0.66 0.66 0.66 0.66 0.66 0.66 0.66 0.66 0.66 0.66 0.68 0.70 0.72 0.74 0.76 0.80 0.84 0.86 0.86 0.86 0.86 0.86 0.86 0.86 0.88 0.88 0.90 0.90 0.90 0.90 0.92
0.92 0.97 1.01 1.03 1.07 1.11 1.15 1.23 1.27 1.29 1.33 1.33 1.33 1.33 1.31 1.31 1.29 1.23 1.17 1.13 1.11 1.07 1.05 1.01 0.97 0.92 0.88 0.86 0.84 0.82 0.82 0.80 0.78 0.74 0.72 0.70 0.68 0.68 0.68 0.70 0.68 0.70 0.70 0.70 0.70 0.70 0.72 0.74 0.76 0.76 0.78 0.80 0.82 0.86 0.88 0.88 0.90 0.90 0.90 0.90 0.90 0.90 0.90 0.90 0.92 0.92 0.92 0.92 0.94
0.99 1.01 1.05 1.07 1.09 1.13 1.17 1.23 1.27 1.31 1.33 1.33 1.31 1.31 1.29 1.27 1.25 1.19 1.13 1.11 1.07 1.05 1.01 0.97 0.94 0.92 0.88 0.86 0.84 0.84 0.80 0.78 0.78 0.76 0.74 0.70 0.70 0.70 0.72 0.74 0.74 0.74 0.76 0.76 0.76 0.78 0.80 0.82 0.82 0.84 0.84 0.86 0.86 0.90 0.90 0.90 0.90 0.90 0.90 0.90 0.90 0.90 0.92 0.92 0.95 0.95 0.97 0.97 0.97
1.03 1.05 1.09 1.11 1.15 1.19 1.23 1.27 1.29 1.31 1.33 1.31 1.29 1.27 1.25 1.23 1.19 1.15 1.11 1.09 1.05 1.03 0.99 0.95 0.94 0.92 0.88 0.84 0.84 0.82 0.80 0.78 0.78 0.76 0.76 0.74 0.74 0.76 0.80 0.80 0.80 0.80 0.82 0.82 0.82 0.84 0.84 0.86 0.88 0.90 0.90 0.90 0.90 0.92 0.92 0.92 0.92 0.92 0.92 0.92 0.92 0.94 0.94 0.95 0.99 1.01 1.01 0.99 0.99
1.07 1.09 1.15 1.19 1.23 1.25 1.27 1.29 1.31 1.31 1.31 1.29 1.27 1.25 1.21 1.19 1.15 1.13 1.09 1.07 1.03 0.99 0.95 0.94 0.92 0.90 0.88 0.84 0.82 0.82 0.80 0.80 0.78 0.78 0.78 0.78 0.80 0.82 0.84 0.84 0.84 0.86 0.86 0.86 0.86 0.88 0.88 0.90 0.92 0.92 0.92 0.92 0.92 0.92 0.92 0.92 0.92 0.92 0.94 0.94 0.94 0.95 0.97 0.99 1.01 1.01 1.01 1.01 1.01
1.11 1.17 1.23 1.27 1.29 1.29 1.29 1.31 1.31 1.31 1.29 1.27 1.25 1.21 1.19 1.15 1.13 1.09 1.05 1.03 1.01 0.97 0.95 0.92 0.90 0.88 0.86 0.84 0.84 0.82 0.82 0.82 0.82 0.82 0.82 0.84 0.84 0.86 0.86 0.88 0.88 0.88 0.88 0.88 0.90 0.90 0.92 0.92 0.94 0.94 0.94 0.94 0.92 0.92 0.92 0.94 0.94 0.94 0.94 0.94 0.95 0.97 0.99 0.99 0.99 0.99 1.01 1.01 1.01
1.19 1.25 1.29 1.29 1.31 1.31 1.31 1.31 1.31 1.29 1.27 1.25 1.21 1.19 1.17 1.13 1.13 1.09 1.05 1.01 0.99 0.97 0.94 0.92 0.90 0.88 0.86 0.86 0.84 0.84 0.84 0.84 0.84 0.84 0.84 0.88 0.88 0.90 0.92 0.92 0.92 0.92 0.92 0.92 0.92 0.94 0.94 0.94 0.94 0.94 0.94 0.92 0.92 0.92 0.94 0.94 0.94 0.95 0.95 0.97 0.97 0.99 0.99 0.99 1.01 1.01 1.01 1.01 1.01
1.27 1.29 1.31 1.31 1.31 1.31 1.31 1.31 1.29 1.27 1.23 1.21 1.19 1.17 1.13 1.11 1.09 1.07 1.03 0.99 0.99 0.97 0.94 0.92 0.92 0.90 0.88 0.88 0.86 0.86 0.88 0.88 0.88 0.90 0.94 0.94 0.94 0.94 0.97 0.97 0.95 0.95 0.94 0.94 0.95 0.95 0.95 0.95 0.94 0.94 0.94 0.95 0.95 0.95 0.95 0.97 0.97 0.97 0.97 0.99 0.99 0.99 0.99 1.01 1.01 1.01 1.01 1.01 0.99
1.29 1.29 1.31 1.31 1.31 1.31 1.29 1.29 1.27 1.23 1.21 1.19 1.17 1.15 1.11 1.09 1.07 1.05 1.03 0.99 0.99 0.95 0.94 0.92 0.92 0.90 0.88 0.88 0.88 0.88 0.90 0.92 0.92 0.95 0.97 0.97 0.95 0.95 0.97 0.97 0.97 0.95 0.95 0.95 0.95 0.97 0.97 0.95 0.95 0.95 0.95 0.97 0.97 0.97 0.99 0.99 0.99 0.99 0.99 0.99 0.99 0.99 0.99 0.99 0.99 0.99 0.99 0.97 0.95
1.29 1.29 1.31 1.31 1.29 1.29 1.27 1.27 1.23 1.21 1.19 1.17 1.17 1.15 1.11 1.09 1.07 1.05 1.03 0.99 0.97 0.95 0.95 0.95 0.95 0.94 0.92 0.90 0.90 0.88 0.88 0.88 0.90 0.92 0.94 0.94 0.94 0.94 0.94 0.95 0.94 0.95 0.95 0.95 0.97 0.97 0.95 0.95 0.94 0.95 0.95 0.97 0.97 0.99 0.99 0.99 0.99 0.99 0.99 0.99 0.99 0.97 0.95 0.95 0.95 0.94 0.94 0.94 0.94
1.29 1.29 1.29 1.27 1.27 1.27 1.25 1.25 1.21 1.19 1.19 1.17 1.17 1.15 1.13 1.11 1.07 1.05 1.01 0.99 0.97 0.97 0.99 0.99 1.01 1.03 0.99 0.95 0.92 0.90 0.90 0.90 0.88 0.88 0.88 0.90 0.90 0.90 0.92 0.92 0.94 0.94 0.95 0.95 0.97 0.97 0.95 0.95 0.94 0.95 0.97 0.97 0.97 0.99 0.99 0.99 0.99 0.99 0.97 0.97 0.95 0.94 0.92 0.92 0.92 0.92 0.92 0.92 0.92
1.27 1.27 1.25 1.25 1.25 1.23 1.23 1.21 1.19 1.17 1.17 1.17 1.15 1.13 1.11 1.07 1.05 1.03 0.99 0.97 0.99 0.99 0.99 1.01 1.03 1.05 1.05 0.99 0.97 0.97 0.97 0.97 0.94 0.90 0.88 0.88 0.90 0.90 0.90 0.92 0.94 0.95 0.95 0.95 0.95 0.95 0.95 0.95 0.97 0.99 0.99 0.99 0.97 0.97 0.97 0.97 0.97 0.97 0.95 0.95 0.94 0.94 0.92 0.90 0.90 0.90 0.90 0.92 0.90
1.27 1.25 1.25 1.23 1.23 1.21 1.19 1.19 1.15 1.13 1.11 1.09 1.07 1.05 1.03 1.03 1.01 0.99 0.99 0.97 0.99 0.99 0.99 0.97 0.99 1.01 1.01 0.95 0.97 0.99 1.01 1.01 0.97 0.94 0.92 0.92 0.92 0.92 0.92 0.92 0.94 0.94 0.95 0.95 0.95 0.97 0.97 0.97 0.99 0.99 1.01 0.99 0.99 0.97 0.95 0.95 0.95 0.95 0.95 0.94 0.94 0.94 0.92 0.90 0.88 0.88 0.88 0.88 0.86
1.25 1.25 1.23 1.21 1.19 1.15 1.15 1.13 1.09 1.07 1.05 1.03 1.01 0.99 0.99 0.99 0.99 0.99 0.97 0.97 0.97 0.97 0.95 0.94 0.94 0.94 0.92 0.92 0.94 0.95 0.97 0.97 0.94 0.92 0.92 0.92 0.94 0.94 0.94 0.94 0.94 0.94 0.95 0.97 0.97 0.97 0.97 0.99 1.01 1.01 1.01 1.01 1.01 0.99 0.95 0.95 0.95 0.95 0.95 0.94 0.94 0.92 0.90 0.90 0.88 0.86 0.84 0.82 0.82
1.19 1.19 1.17 1.15 1.11 1.09 1.09 1.07 1.03 1.01 1.01 0.99 0.99 0.99 0.99 0.99 0.97 0.97 0.95 0.95 0.94 0.94 0.92 0.92 0.90 0.88 0.88 0.88 0.90 0.90 0.92 0.90 0.90 0.90 0.90 0.90 0.92 0.92 0.92 0.92 0.94 0.94 0.95 0.97 0.97 0.99 0.99 1.03 1.03 1.03 1.03 1.03 1.01 1.01 0.99 0.95 0.95 0.95 0.94 0.94 0.90 0.90 0.88 0.86 0.86 0.84 0.82 0.80 0.76
1.11 1.11 1.09 1.07 1.07 1.05 1.05 1.03 1.01 0.99 0.99 0.99 0.99 0.99 0.97 0.95 0.95 0.94 0.94 0.92 0.92 0.90 0.90 0.88 0.88 0.88 0.88 0.88 0.88 0.88 0.88 0.86 0.88 0.88 0.88 0.88 0.88 0.90 0.90 0.92 0.94 0.95 0.95 0.99 1.01 1.03 1.05 1.05 1.05 1.03 1.03 1.01 0.99 0.99 0.97 0.95 0.94 0.92 0.90 0.88 0.88 0.86 0.84 0.82 0.80 0.78 0.76 0.74 0.72
1.15 1.15 1.15 1.15 1.11 1.07 1.07 1.07 1.03 1.03 1.03 1.01 0.99 0.97 0.95 0.94 0.94 0.92 0.90 0.92 0.97 0.95 0.92 0.90 0.92 0.94 0.94 0.92 0.90 0.88 0.86 0.86 0.88 0.88 0.88 0.88 0.90 0.90 0.92 0.94 0.95 0.97 0.99 1.01 1.03 1.03 1.03 1.01 1.01 0.99 0.99 0.97 0.95 0.95 0.94 0.94 0.92 0.90 0.88 0.86 0.84 0.82 0.80 0.78 0.76 0.74 0.70 0.68 0.66
1.17 1.17 1.19 1.19 1.19 1.19 1.19 1.17 1.11 1.07 1.05 1.03 1.03 1.01 1.01 1.05 1.05 0.99 0.95 0.94 0.99 0.97 0.92 0.90 0.92 0.92 0.92 0.90 0.88 0.86 0.86 0.86 0.86 0.88 0.92 0.94 0.94 0.95 0.97 0.99 1.01 1.03 1.03 1.05 1.03 1.01 0.99 0.97 0.95 0.95 0.94 0.94 0.94 0.92 0.92 0.92 0.90 0.90 0.88 0.84 0.80 0.76 0.74 0.72 0.70 0.66 0.64 0.62 0.56
1.15 1.15 1.17 1.17 1.17 1.17 1.15 1.13 1.05 1.01 0.99 0.99 0.97 0.97 0.99 1.01 1.03 0.99 0.94 0.92 0.95 0.94 0.88 0.86 0.86 0.86 0.86 0.86 0.86 0.86 0.86 0.88 0.90 0.94 0.97 0.99 1.01 1.01 1.03 1.03 1.03 1.03 1.03 1.03 0.97 0.95 0.94 0.92 0.92 0.92 0.92 0.92 0.92 0.92 0.90 0.90 0.88 0.84 0.80 0.78 0.76 0.72 0.68 0.66 0.64 0.62 0.60 0.58 0.52
1.09 1.07 1.07 1.07 1.07 1.05 1.03 1.01 0.95 0.94 0.92 0.92 0.92 0.92 0.92 0.94 0.94 0.90 0.86 0.86 0.88 0.86 0.84 0.84 0.84 0.84 0.86 0.86 0.88 0.90 0.92 0.94 0.95 0.97 1.01 1.03 1.03 1.01 1.01 1.01 1.01 0.99 0.97 0.94 0.92 0.92 0.90 0.90 0.92 0.92 0.92 0.92 0.92 0.90 0.88 0.86 0.84 0.80 0.74 0.72 0.70 0.68 0.66 0.62 0.60 0.56 0.54 0.52 0.50
0.99 0.97 0.97 0.95 0.95 0.95 0.94 0.92 0.92 0.90 0.90 0.88 0.88 0.88 0.88 0.88 0.86 0.86 0.84 0.84 0.84 0.84 0.86 0.86 0.88 0.90 0.90 0.92 0.94 0.95 0.97 0.97 0.99 1.01 1.01 1.01 0.99 0.97 0.95 0.94 0.95 0.94 0.94 0.90 0.90 0.90 0.92 0.92 0.92 0.92 0.92 0.90 0.88 0.86 0.84 0.80 0.78 0.72 0.68 0.66 0.64 0.62 0.60 0.58 0.56 0.54 0.52 0.50 0.48
0.99 0.99 0.99 0.97 0.95 0.95 0.94 0.94 0.94 0.92 0.92 0.92 0.90 0.90 0.90 0.90 0.88 0.88 0.90 0.90 0.88 0.88 0.88 0.90 0.92 0.94 0.94 0.95 0.95 0.97 0.97 0.97 0.97 0.97 0.97 0.97 0.94 0.92 0.90 0.88 0.90 0.90 0.90 0.92 0.92 0.92 0.92 0.92 0.90 0.90 0.88 0.86 0.82 0.80 0.76 0.74 0.66 0.62 0.60 0.58 0.56 0.56 0.54 0.54 0.52 0.52 0.50 0.48 0.48
1.05 1.03 1.03 1.01 1.01 0.99 0.97 0.95 0.95 0.94 0.94 0.94 0.94 0.92 0.92 0.92 0.92 0.92 0.94 0.94 0.94 0.92 0.92 0.94 0.94 0.94 0.94 0.94 0.95 0.95 0.95 0.95 0.94 0.94 0.92 0.92 0.90 0.88 0.86 0.86 0.88 0.90 0.90 0.92 0.90 0.90 0.88 0.88 0.86 0.84 0.82 0.80 0.78 0.74 0.70 0.66 0.60 0.56 0.54 0.52 0.52 0.50 0.50 0.50 0.50 0.48 0.48 0.48 0.48
1.03 1.03 1.01 1.01 0.99 0.97 0.97 0.95 0.94 0.94 0.94 0.94 0.94 0.94 0.94 0.94 0.94 0.94 0.95 0.95 0.95 0.94 0.94 0.94 0.92 0.92 0.92 0.92 0.92 0.92 0.92 0.92 0.92 0.90 0.88 0.88 0.88 0.88 0.86 0.86 0.88 0.88 0.88 0.88 0.88 0.86 0.84 0.82 0.80 0.80 0.76 0.74 0.72 0.68 0.64 0.56 0.54 0.52 0.50 0.48 0.48 0.48 0.48 0.48 0.48 0.48 0.48 0.48 0.48
0.99 0.99 0.97 0.97 0.95 0.95 0.94 0.92 0.92 0.92 0.92 0.92 0.92 0.92 0.94 0.94 0.94 0.94 0.95 0.95 0.95 0.94 0.92 0.92 0.90 0.90 0.90 0.90 0.90 0.90 0.90 0.90 0.90 0.90 0.88 0.88 0.88 0.88 0.88 0.86 0.84 0.84 0.84 0.84 0.82 0.80 0.80 0.78 0.76 0.74 0.70 0.68 0.66 0.62 0.60 0.54 0.50 0.50 0.48 0.46 0.46 0.46 0.46 0.46 0.46 0.46 0.46 0.48 0.48
0.95 0.95 0.94 0.94 0.92 0.92 0.92 0.90 0.90 0.90 0.90 0.90 0.90 0.90 0.92 0.92 0.92 0.94 0.94 0.94 0.94 0.92 0.92 0.90 0.90 0.90 0.90 0.90 0.88 0.88 0.88 0.88 0.88 0.88 0.88 0.88 0.88 0.86 0.86 0.84 0.82 0.80 0.80 0.80 0.78 0.76 0.74 0.72 0.70 0.66 0.64 0.62 0.60 0.58 0.54 0.52 0.50 0.48 0.46 0.46 0.44 0.44 0.44 0.44 0.46 0.46 0.46 0.48 0.48
0.94 0.94 0.92 0.92 0.92 0.90 0.90 0.88 0.88 0.90 0.90 0.90 0.90 0.90 0.90 0.90 0.90 0.92 0.92 0.92 0.90 0.90 0.90 0.90 0.88 0.88 0.88 0.88 0.88 0.86 0.86 0.86 0.86 0.88 0.88 0.86 0.84 0.84 0.82 0.80 0.78 0.78 0.76 0.76 0.72 0.70 0.68 0.66 0.64 0.62 0.60 0.58 0.56 0.54 0.52 0.50 0.48 0.46 0.44 0.44 0.44 0.42 0.42 0.44 0.46 0.46 0.46 0.46 0.48
Wind_Speed
36 35 34 33 32 31 30 29 28 28 28 28 28 29 30 30 30 30 30 30 30 29 28 27 27 28 27 26 25 24 23 23 22 22 22 22 22 22 21 21 21 20 20 19 19 18 18 18 18 18 18 18 19 19 19 19 19 19 19 19 19 19 19 19 19 19 19 19 19
36 35 34 32 31 30 29 28 28 28 28 28 28 30 31 31 30 29 29 29 29 28 27 27 28 28 27 26 24 23 23 22 22 22 22 22 22 22 21 21 20 20 19 19 18 18 18 18 18 18 18 17 18 18 18 18 18 18 19 19 19 19 19 19 19 19 19 19 19
36 34 33 32 31 30 29 29 28 28 28 28 29 30 31 30 29 29 29 29 28 27 27 27 28 27 26 25 24 23 22 22 22 22 22 22 22 21 21 20 20 19 19 19 18 18 17 17 17 17 17 17 17 17 17 17 17 18 18 18 18 18 18 19 19 18 18 18 18
35 34 33 31 30 30 29 29 28 27 27 28 30 31 31 30 29 29 29 29 28 27 27 28 28 27 25 24 23 22 22 22 22 22 22 21 21 20 20 19 19 19 18 18 18 17 17 17 16 16 16 16 16 16 16 17 17 17 17 18 18 18 18 18 18 18 18 18 18
34 33 32 31 31 30 29 28 27 27 28 29 31 32 31 29 29 29 29 28 28 27 28 28 27 26 25 23 22 22 21 21 21 21 20 20 20 19 19 19 18 18 18 18 17 17 16 16 16 16 16 16 16 16 16 16 17 17 17 17 17 17 17 17 17 17 17 17 17
33 32 32 31 30 29 28 27 27 27 28 30 32 32 31 30 30 30 29 28 27 27 28 27 27 25 24 23 22 21 20 20 20 19 19 19 19 18 18 18 18 18 18 17 17 16 16 16 16 16 16 16 16 16 16 16 16 16 16 16 16 16 16 17 17 17 17 17 17
31 31 31 31 30 29 27 27 27 28 29 31 33 33 32 31 31 30 28 27 27 27 27 27 26 25 23 22 21 20 19 19 18 18 18 18 18 18 18 18 18 17 17 17 16 16 16 16 16 15 15 16 16 16 16 16 16 16 16 16 16 16 16 16 16 16 16 16 17
30 30 30 30 29 28 27 27 28 29 31 33 33 33 32 31 31 29 27 26 26 27 27 26 25 24 22 21 20 19 18 18 18 18 18 18 18 18 18 18 17 17 17 16 16 16 16 15 15 15 15 16 16 16 16 16 16 16 16 16 16 16 16 16 16 16 16 16 16
30 30 30 30 29 28 27 27 29 31 33 34 34 32 31 31 30 28 26 26 26 26 26 25 24 22 21 20 19 19 18 18 18 18 18 18 18 18 18 17 17 16 16 16 16 16 15 15 15 15 15 15 15 15 15 15 15 16 16 16 15 15 15 15 15 15 15 15 15
30 29 29 29 28 27 27 28 30 32 33 34 33 31 30 29 28 26 26 26 26 25 24 23 22 21 20 20 19 18 18 18 18 18 18 18 18 17 17 17 16 16 16 16 15 15 15 15 15 15 15 15 15 15 15 15 15 15 15 15 15 15 15 14 14 14 14 14 15
29 29 29 28 27 27 27 29 31 33 33 32 30 29 28 27 26 26 26 26 25 24 23 22 21 21 20 19 19 18 18 18 18 18 18 17 17 17 17 16 16 16 16 16 15 15 15 15 15 15 15 15 15 15 14 14 14 15 15 14 14 14 14 14 13 13 14 14 14
29 28 28 27 27 27 28 31 32 33 31 29 28 27 27 26 25 26 26 25 25 23 23 22 21 20 19 19 18 18 17 17 17 17 17 17 17 16 16 16 16 16 16 15 15 15 15 15 15 15 15 15 14 14 14 14 14 14 14 14 13 13 13 13 13 13 13 14 14
28 28 27 27 27 27 29 31 32 31 29 27 26 26 26 26 26 26 26 25 24 23 22 21 20 19 18 18 17 17 17 17 17 17 17 16 16 16 16 16 16 16 16 15 15 15 15 15 15 15 15 14 14 14 14 14 14 14 13 13 13 13 13 13 13 13 13 13 13
27 27 27 27 27 28 29 31 31 29 27 26 26 27 26 26 26 26 25 24 23 22 21 20 19 18 18 17 17 17 16 16 16 16 16 16 16 16 16 16 16 16 15 15 15 15 15 15 15 15 14 14 14 14 13 13 13 13 13 13 12 13 12 12 12 12 12 13 13
26 26 26 27 28 28 29 30 30 27 26 26 27 27 26 26 26 25 24 24 23 22 21 19 18 18 17 17 16 16 16 16 16 16 16 16 16 16 16 16 15 15 15 15 14 14 14 14 14 14 14 14 14 13 13 13 13 12 12 12 12 12 12 12 12 12 12 13 14
25 26 27 27 28 28 29 29 29 27 26 26 27 26 26 25 25 24 23 23 22 21 20 19 18 17 17 16 16 16 16 16 16 16 16 16 16 15 15 15 15 15 14 14 14 14 14 14 14 14 14 13 13 13 13 12 12 12 12 12 11 11 11 11 12 12 13 14 15
26 26 27 28 28 28 28 29 28 27 27 27 26 26 25 25 24 23 23 22 21 21 20 19 18 17 16 16 16 15 15 15 15 15 15 15 15 15 15 15 14 14 14 14 14 13 13 13 13 13 13 13 12 12 12 12 12 12 11 11 11 11 11 12 12 13 14 15 16
28 27 27 28 28 28 28 28 28 28 28 28 27 26 25 24 24 23 22 22 21 20 19 18 18 17 16 16 15 15 15 15 15 15 15 15 14 14 14 14 14 14 13 13 13 13 13 13 13 12 12 12 12 12 12 12 11 11 11 11 11 12 13 13 14 14 15 15 16
29 28 28 28 28 28 29 29 29 29 28 28 27 26 25 24 24 23 22 21 21 20 19 18 17 17 16 16 15 15 15 15 15 14 14 14 14 14 14 13 13 13 13 13 13 13 13 12 12 12 12 12 12 12 11 11 11 11 11 12 12 13 13 14 14 14 15 15 15
29 29 29 28 28 29 29 29 29 28 28 28 27 26 25 24 24 23 22 21 20 19 18 18 17 17 16 16 15 15 15 14 14 14 14 14 13 13 13 13 13 13 13 13 13 13 12 12 12 12 12 12 12 12 11 11 11 11 11 12 12 13 13 13 13 14 14 14 15
29 29 28 27 28 28 29 29 28 28 28 28 27 26 25 24 23 22 22 21 20 19 18 18 17 16 16 16 15 15 14 14 14 14 13 13 13 13 13 13 13 13 12 12 12 12 12 12 12 12 12 12 12 12 12 12 12 12 12 12 12 12 12 12 13 13 13 14 15
28 27 27 27 28 28 28 27 27 27 27 27 26 26 25 24 23 22 21 20 19 18 18 17 16 16 16 15 15 14 14 14 14 13 13 13 13 12 12 12 12 12 12 12 12 12 12 12 12 12 12 12 12 12 12 12 12 12 11 11 11 11 12 12 12 13 14 14 15
26 26 26 27 27 27 27 27 27 27 27 26 25 25 24 23 22 21 20 19 18 18 17 17 16 16 15 15 14 14 14 13 13 12 12 12 12 11 11 11 11 11 11 11 11 11 12 12 12 12 12 12 12 12 12 11 11 11 11 11 11 11 11 12 13 14 14 15 15
25 25 26 27 27 27 27 27 27 26 26 25 24 23 23 22 21 20 19 18 18 17 17 16 16 16 15 14 14 13 13 12 11 11 11 11 11 10 10 10 10 10 10 11 11 11 11 12 12 12 11 11 11 11 11 11 11 11 11 11 11 12 12 13 13 14 14 14 14
25 26 27 27 27 27 27 26 26 25 24 23 23 22 21 21 20 19 18 17 17 16 16 15 15 15 15 14 14 13 13 12 11 11 10 10 10 10 10 10 10 10 10 11 11 11 11 11 11 11 11 11 11 11 11 11 11 11 12 12 12 12 13 13 13 13 13 13 14
26 26 27 26 26 26 25 25 24 23 23 22 21 21 20 19 19 18 17 17 16 15 15 14 14 14 14 14 14 13 13 12 12 11 11 11 11 11 10 10 10 11 11 10 10 10 10 10 11 11 11 11 11 11 11 11 11 11 11 12 12 12 12 12 13 13 13 13 14
26 26 26 25 25 24 24 23 22 22 21 21 20 20 19 19 18 17 17 16 15 15 14 14 13 13 13 13 13 13 13 13 12 12 11 11 11 11 11 11 11 11 11 10 10 10 10 10 10 10 10 11 11 10 11 11 11 11 11 12 12 12 12 12 12 12 13 14 14
25 24 24 24 23 23 22 22 22 21 21 20 20 19 19 18 17 17 16 16 15 15 14 14 13 13 13 12 12 12 12 12 12 12 12 12 11 11 11 11 11 11 10 10 10 10 10 10 10 10 10 10 10 10 10 11 11 11 11 12 12 12 12 12 12 13 13 14 14
23 23 23 23 23 22 22 22 22 21 21 20 20 19 18 18 17 16 16 16 15 15 14 14 14 13 13 13 12 12 11 11 11 12 12 12 11 11 11 11 11 10 10 10 10 10 9 9 9 9 10 10 10 10 11 11 11 11 11 12 12 12 12 12 13 13 14 14 14
22 22 22 22 22 21 21 21 21 21 20 20 19 19 18 18 17 16 16 16 16 15 15 14 14 14 13 13 12 12 11 11 11 12 12 11 11 11 11 11 10 10 10 10 10 10 9 9 9 9 9 9 10 10 11 11 11 11 11 11 11 12 12 12 13 13 13 13 13
21 20 20 20 19 19 19 19 19 20 19 19 19 18 18 17 17 16 16 15 16 15 14 14 14 14 14 13 12 12 12 11 11 11 11 11 11 11 11 11 10 10 10 9 9 9 9 8 8 9 9 9 10 10 11 11 11 11 11 11 11 11 12 12 12 12 13 12 12
19 19 19 18 17 17 16 16 17 17 18 18 17 17 17 16 16 16 16 15 15 15 14 14 13 13 13 12 12 12 11 11 11 11 11 11 11 11 10 10 9 9 9 8 8 8 8 8 8 9 9 9 10 10 10 10 10 10 10 10 11 11 11 12 12 12 12 11 10
18 18 17 17 17 17 16 16 16 16 16 16 16 16 16 15 15 15 15 14 14 14 14 13 13 12 12 12 12 11 11 11 11 11 11 11 11 10 9 9 9 8 8 8 8 8 8 8 8 8 9 9 9 9 9 9 9 10 10 10 11 11 11 11 11 11 11 10 9
17 17 17 17 17 17 17 16 15 15 16 15 15 15 15 15 15 14 14 14 14 13 13 13 13 12 12 12 12 11 11 11 11 11 10 10 10 9 9 8 8 8 8 8 8 8 8 8 8 8 8 8 9 9 9 9 9 10 10 10 10 11 11 11 11 10 9 8 8
16 16 17 17 17 17 16 16 16 16 16 15 15 15 14 14 14 14 14 14 14 14 13 13 13 12 12 12 11 11 11 10 10 10 10 9 9 9 8 8 8 8 8 8 8 8 7 7 7 7 8 8 9 9 9 9 9 10 10 10 10 10 10 10 10 9 8 7 7
16 16 16 16 16 16 16 16 16 16 15 15 15 15 15 14 14 14 15 14 14 14 13 13 12 12 12 11 11 10 10 10 10 10 9 9 9 9 8 8 8 8 8 7 7 7 7 7 7 8 8 9 9 9 9 9 9 9 9 9 10 10 9 9 8 8 7 7 7
15 15 15 15 15 15 15 15 15 15 15 14 14 14 14 14 14 14 14 14 14 13 13 12 12 11 11 11 10 10 10 10 10 10 9 9 9 9 8 8 8 7 7 7 7 7 7 7 8 8 9 9 9 9 9 9 9 9 9 9 9 9 9 8 7 7 7 7 7
14 14 14 14 14 14 14 14 14 14 14 14 13 13 14 14 13 13 13 13 13 12 12 12 11 11 11 11 11 10 10 10 10 10 9 9 8 8 8 7 7 7 7 7 7 7 7 8 8 8 9 9 9 9 9 8 8 8 8 9 8 8 8 7 7 7 7 7 8
14 14 14 14 14 14 13 13 13 13 13 13 13 13 13 13 13 12 12 12 12 12 12 11 11 11 11 11 11 10 10 10 9 9 8 8 7 7 7 7 6 7 7 7 7 7 7 8 8 8 8 8 8 8 8 8 8 8 8 8 8 7 7 7 7 7 7 8 8
13 13 13 13 13 13 13 13 13 13 13 13 13 12 12 12 12 12 12 12 11 11 11 11 11 11 11 10 10 10 9 9 8 8 7 7 7 7 6 6 7 7 7 7 7 7 7 7 7 7 7 7 8 8 8 8 8 8 7 7 7 7 7 7 7 7 8 8 9
12 12 12 12 12 12 12 12 12 12 12 12 12 12 12 12 12 12 12 11 11 11 11 11 11 10 10 10 9 9 8 8 7 7 7 7 7 6 7 7 7 7 7 7 7 7 7 7 6 6 7 7 7 7 8 8 8 7 7 7 7 7 6 7 7 7 8 9 10
Wind_Direction
197 198 199 200 201 202 202 202 202 203 204 205 206 204 201 198 197 198 199 201 202 203 206 207 208 207 205 203 202 203 204 206 208 209 211 212 213 214 215 217 218 219 220 221 222 223 224 225 226 227 228 229 230 231 232 233 234 235 236 238 239 241 243 245 247 249 251 254 257
195 196 197 198 198 199 199 200 201 202 203 204 204 201 197 195 195 196 198 199 201 203 206 208 208 206 204 202 201 202 204 206 208 209 211 212 213 213 214 215 217 218 219 219 220 221 223 223 225 226 227 228 229 230 231 232 233 234 235 237 239 241 243 245 247 250 252 255 257
193 194 194 195 196 197 198 199 200 201 202 203 201 197 194 192 193 195 196 198 200 203 205 207 206 205 202 201 201 203 205 206 208 209 210 211 212 213 213 215 215 216 217 218 219 220 221 222 223 225 226 227 228 229 230 231 232 233 235 236 239 241 243 246 248 250 253 255 258
191 192 192 193 194 196 197 198 199 200 201 200 197 194 191 190 192 194 196 197 200 202 204 204 204 203 201 201 201 203 205 206 208 209 210 211 211 212 213 214 215 215 216 217 218 219 220 221 223 224 225 225 226 227 229 230 232 233 235 237 240 242 244 246 249 251 253 256 258
190 190 191 192 194 195 197 197 197 198 198 197 194 191 189 189 190 192 195 197 199 201 202 202 201 201 201 201 201 203 205 206 207 208 209 210 211 212 213 213 214 215 216 216 217 218 219 220 222 223 224 225 226 227 229 230 231 234 236 239 241 243 245 247 250 252 254 256 259
188 189 190 191 193 194 195 196 196 196 195 194 191 189 187 187 189 191 194 196 198 199 199 199 200 200 200 200 201 203 204 205 207 208 209 210 211 212 213 213 214 215 215 216 216 217 218 219 221 222 223 224 226 227 229 230 232 234 237 239 241 243 245 248 250 252 255 257 259
187 188 189 191 192 193 194 194 194 193 192 191 189 187 186 186 188 191 193 195 197 198 198 198 198 198 199 199 201 202 203 204 206 207 208 209 211 212 212 213 213 214 214 215 215 216 217 218 220 221 222 223 225 227 229 230 233 235 237 239 241 243 246 248 251 253 256 258 260
186 187 188 190 191 192 193 193 192 191 190 189 187 186 185 186 188 191 193 195 196 197 197 197 197 197 197 198 200 201 202 203 205 206 208 209 210 210 211 211 212 213 213 214 214 215 216 217 219 220 221 223 225 227 228 230 233 235 237 240 242 244 246 249 251 254 256 258 260
185 186 188 189 190 191 192 192 190 188 187 186 186 185 185 187 189 192 194 195 195 196 196 196 195 195 196 197 199 200 201 202 204 205 207 208 208 209 209 210 210 211 212 212 212 213 214 216 217 219 220 222 225 227 228 230 233 235 238 240 242 245 247 249 251 254 256 258 260
184 185 187 188 189 190 191 190 187 185 184 183 183 185 187 189 191 193 194 193 193 193 194 195 195 195 196 197 199 200 201 202 203 204 205 206 206 207 207 208 208 209 210 210 211 211 212 214 216 218 220 222 224 227 228 230 233 235 237 240 242 245 247 249 251 253 255 257 259
184 185 186 187 188 189 188 186 184 182 181 181 182 185 189 191 193 192 190 189 190 191 193 195 195 196 197 198 199 200 201 202 202 202 203 203 204 205 206 206 207 207 208 208 209 210 211 213 215 217 220 222 224 226 228 229 232 234 237 239 242 244 246 248 250 252 254 256 259
184 185 186 187 187 187 186 183 181 180 180 181 183 186 189 191 190 188 186 187 189 191 193 195 195 196 197 198 199 199 199 200 200 200 200 201 202 203 204 204 205 206 206 207 208 209 211 213 215 217 219 221 223 225 227 228 230 233 236 238 240 242 245 247 249 251 253 255 259
184 186 186 186 186 185 183 181 179 179 179 182 184 186 187 187 185 184 184 187 189 192 193 194 195 195 196 196 197 197 197 196 196 197 198 199 200 201 202 203 204 204 205 206 207 209 210 212 214 216 218 221 222 224 226 227 229 232 234 237 239 241 244 247 249 251 254 257 261
184 185 185 184 183 181 180 179 178 179 180 181 182 183 183 183 182 183 185 188 190 191 191 192 193 194 194 194 193 193 193 193 194 194 196 197 198 199 200 201 202 203 204 206 207 208 210 212 214 216 218 220 222 224 225 227 229 231 233 235 238 241 244 247 250 253 257 260 264
183 183 182 180 179 178 178 178 179 179 180 180 180 180 180 180 181 183 186 188 189 189 189 190 190 191 191 191 190 190 190 191 191 192 194 195 196 198 199 200 200 202 203 204 206 208 210 212 214 216 218 220 221 223 224 225 228 230 232 235 237 240 243 247 251 256 260 264 267
180 179 177 176 176 176 177 178 178 179 179 179 179 178 178 179 181 184 186 187 187 187 187 187 188 188 188 188 187 187 188 188 189 190 192 193 194 195 196 197 198 200 201 202 204 207 209 211 213 215 217 219 220 221 222 224 226 228 231 233 236 240 244 249 254 259 263 267 270
175 175 174 174 174 175 176 177 177 178 179 180 179 178 178 179 181 184 186 186 185 185 185 185 185 185 185 185 185 186 186 187 187 188 189 190 191 192 193 195 196 198 199 201 204 206 208 210 213 215 216 217 219 220 221 223 225 227 231 235 239 244 249 253 258 262 266 270 273
172 172 171 171 171 172 174 175 176 178 180 180 179 178 178 180 182 184 185 185 184 183 183 183 183 183 183 183 183 183 183 184 185 185 185 186 187 189 192 194 196 198 200 202 205 207 209 211 213 215 216 217 217 217 219 222 225 229 234 239 245 249 253 258 262 267 271 274 277
169 169 168 168 169 170 172 174 176 178 179 179 178 178 179 180 182 183 183 183 182 181 181 181 181 181 180 180 180 180 181 181 182 183 184 186 188 191 194 197 199 201 203 204 207 209 211 213 214 215 215 215 215 216 218 222 227 232 238 243 249 253 258 263 267 271 275 278 280
165 165 166 167 168 169 170 172 174 175 176 177 177 178 179 181 181 181 181 181 180 180 179 178 178 178 178 177 177 178 179 179 181 183 186 189 192 195 197 199 201 203 204 206 207 209 211 213 213 213 213 213 215 217 221 225 230 235 241 247 253 257 262 267 270 273 276 279 281
161 163 164 165 166 166 167 169 171 172 173 175 176 178 179 180 179 179 178 178 178 178 177 177 176 175 175 175 176 177 178 180 182 184 188 191 194 196 199 201 202 204 205 207 209 210 210 211 211 211 212 214 217 221 225 230 235 240 245 251 256 260 264 268 271 273 276 279 282
159 161 161 162 163 163 165 166 168 170 171 174 176 177 178 178 177 176 176 177 176 176 175 175 174 174 175 176 177 178 180 183 185 187 190 192 195 198 200 202 203 204 205 207 209 209 209 209 210 211 214 217 222 226 230 235 239 244 248 253 257 261 264 268 272 275 278 281 283
158 159 159 159 160 161 163 164 166 168 170 173 175 177 177 176 175 175 175 174 174 174 173 173 173 173 174 176 177 179 182 184 186 188 190 191 194 197 200 201 202 203 204 206 207 207 208 208 210 213 217 222 226 230 234 237 241 246 250 253 257 262 266 270 274 277 279 281 282
156 157 157 157 158 159 160 162 165 168 171 173 175 175 174 173 173 172 172 171 171 171 173 173 174 173 173 174 176 178 181 183 185 187 188 189 193 196 199 200 201 202 204 205 206 206 207 209 211 215 219 224 229 233 237 240 244 248 252 256 260 264 268 272 275 277 279 281 283
154 154 154 155 156 158 160 163 166 168 171 172 172 172 172 171 170 169 168 168 169 170 172 173 174 174 174 174 175 177 180 182 184 186 188 190 193 197 199 201 202 203 205 206 206 206 208 210 213 216 221 225 230 235 239 244 247 251 254 258 261 265 269 272 275 277 280 283 286
151 152 153 154 156 159 161 164 166 168 169 169 169 169 169 169 168 167 166 167 168 169 170 171 173 174 175 175 177 179 182 183 185 187 189 192 195 198 200 201 203 204 205 206 206 206 208 211 215 219 223 227 231 236 241 245 249 253 256 259 262 265 268 271 274 278 282 285 289
150 152 154 156 158 160 162 164 165 165 165 165 166 166 167 167 166 166 166 167 167 168 168 169 171 172 174 177 180 183 185 187 188 189 191 194 196 198 199 201 203 204 205 205 205 206 209 212 216 221 226 230 234 238 242 246 251 254 257 260 263 266 268 271 276 280 284 287 290
149 152 154 156 157 158 160 161 161 161 161 162 163 164 164 165 165 165 166 166 167 167 168 169 171 173 176 179 182 184 185 186 188 190 193 195 196 197 198 200 202 203 203 203 205 207 211 215 219 224 228 233 237 241 245 248 252 256 259 262 266 269 272 275 280 283 286 289 291
149 151 152 153 154 155 156 157 157 158 159 160 161 162 163 163 164 165 166 167 167 168 169 172 174 176 177 179 181 183 184 186 188 191 193 194 195 196 198 199 200 202 202 204 206 210 214 218 222 226 230 235 239 243 247 251 255 259 262 266 270 273 277 280 283 286 288 289 290
148 148 149 150 151 152 153 154 155 156 157 158 160 161 162 162 163 165 166 168 169 170 171 173 175 176 177 178 180 183 185 187 189 191 192 193 194 195 197 198 200 202 203 205 207 211 215 219 224 228 234 238 243 247 251 255 259 262 266 269 272 276 279 282 284 286 288 289 289
146 146 145 144 145 147 149 151 153 155 156 158 159 160 161 162 163 165 168 170 171 171 172 173 175 177 177 178 180 182 185 187 189 190 191 192 192 194 195 197 199 202 204 205 208 213 218 224 230 235 240 244 248 251 255 258 261 265 268 271 274 277 280 282 285 287 287 287 285
144 143 141 140 140 142 146 149 152 154 155 156 158 159 160 161 163 165 168 171 172 171 171 174 176 177 177 178 180 183 185 187 188 189 190 190 190 191 192 195 199 203 207 210 215 220 226 231 236 240 244 248 251 254 257 259 262 266 269 273 276 279 281 283 285 286 286 284 282
143 142 141 140 142 145 148 151 152 152 153 154 155 157 158 160 162 164 166 169 170 170 171 174 176 177 177 179 181 183 185 186 187 187 187 188 188 190 193 198 204 209 214 218 223 227 231 235 238 242 246 249 253 256 258 260 263 267 270 274 278 281 283 284 284 284 283 281 279
144 143 143 144 146 148 150 151 151 150 150 152 154 156 158 159 161 163 165 168 169 171 172 175 176 178 179 181 183 184 185 186 186 187 187 189 192 195 199 205 211 216 219 221 225 228 231 235 240 244 248 251 254 257 259 262 266 269 273 276 279 282 283 284 283 282 280 278 276
143 143 144 145 146 148 149 149 149 149 150 152 154 156 158 160 161 164 166 169 171 173 174 176 178 179 181 182 183 184 184 185 187 189 191 194 196 199 202 208 213 217 219 221 225 229 233 238 244 248 252 256 258 261 263 266 269 272 275 277 279 281 282 282 281 279 276 274 275
140 141 142 143 144 145 146 148 149 150 151 153 155 157 160 162 164 167 169 171 173 175 176 178 180 181 181 182 183 184 185 187 188 191 193 196 198 200 204 209 213 217 220 224 228 234 240 246 251 255 258 260 262 264 266 268 271 273 276 278 279 280 281 281 279 276 273 273 278
137 139 141 142 143 144 145 147 148 149 151 154 156 158 160 163 166 168 171 173 174 175 177 179 180 180 181 182 183 184 186 187 189 191 194 197 199 202 205 210 216 221 226 231 237 243 248 253 257 259 261 262 262 263 265 267 270 272 275 277 279 280 280 278 276 274 274 276 282
136 138 140 142 143 144 144 146 147 149 151 154 156 158 161 163 166 168 171 173 173 174 176 177 178 179 180 181 182 184 186 188 190 192 195 199 202 204 207 213 220 228 235 240 245 250 254 257 259 260 261 261 262 262 264 266 268 271 274 276 278 278 277 275 272 272 276 281 287
135 137 138 140 141 143 144 146 147 149 151 153 155 158 160 163 165 167 169 171 172 173 174 175 176 177 179 181 183 185 187 190 193 195 199 202 206 210 214 219 227 235 242 247 250 254 256 258 260 261 261 261 262 262 264 265 268 272 275 277 277 276 274 271 270 272 277 284 291
135 137 138 139 141 143 145 146 148 150 152 154 156 158 160 161 163 165 167 168 169 171 172 173 174 177 179 182 184 186 189 193 196 200 203 207 212 217 222 227 234 240 246 250 253 255 257 258 259 260 261 261 262 263 265 268 271 275 278 278 277 273 269 267 268 272 278 284 290
137 138 140 141 142 144 146 147 149 151 154 156 157 159 162 163 165 167 168 169 170 172 173 174 176 178 181 184 187 189 191 195 199 204 209 214 219 224 229 234 238 243 248 251 252 254 254 255 256 257 258 261 264 267 270 273 276 278 279 277 274 269 265 265 268 274 280 286 291